User: anonymous   Login
Location: Unspecified
(0.0000°N, 0.0000°E)
Time: 20:00:13
(UTC+00:00)
Language:

SURFSAT - Orbit

View from above orbital plane
View from above orbital plane
View from above satellite
View from above satellite

Ground track
Ground track

The orbit data is extracted from the following two-line orbital elements,

1 43614U 18070B   21020.13864535  .00003027  00000-0  74100-4 0  9992
2 43614  93.0248 244.3981 0012868 210.2288 149.8226 15.40751349131821
Epoch (UTC): 20 January 2021 03:19:38
Eccentricity: 0.0012868
inclination: 93.0248°
perigee height: 435 km
apogee height: 452 km
right ascension of ascending node: 244.3981°
argument of perigee: 210.2288°
revolutions per day: 15.40751349
mean anomaly at epoch: 149.8226°
orbit number at epoch: 13182

The dashed part of the orbit path shows where the satellite is in the earth's shadow,  

DLR